UAL1284 KSFO-KORD

Flight info

Callsign UAL1284
Flight time 3h 51m
Altitude 39000
Route TRUKN2 MOGEE Q122 VIGGR MYRRS FYTTE7
Aircraft A21N/M-SDE2E3FGHIRWXY/LB1

Departure

Time 2026-05-05 13:15
Airport San Francisco International Airport (KSFO)

Arrival

Time 2026-05-05 17:07
Airport Chicago O'Hare International Airport (KORD)
Time Latitude Longitude Altitude Speed Heading
2026-05-05 12:50 37.62053 -122.38647 17 ft 0 kts 296°
2026-05-05 13:06 37.62046 -122.38630 17 ft 3 kts 302°
2026-05-05 13:06 37.62033 -122.38611 18 ft 3 kts 334°
2026-05-05 13:06 37.62014 -122.38604 18 ft 3 kts
2026-05-05 13:07 37.62000 -122.38607 19 ft 0 kts 28°
2026-05-05 13:10 37.62020 -122.38594 18 ft 6 kts 26°
2026-05-05 13:10 37.62069 -122.38562 18 ft 8 kts 35°
2026-05-05 13:11 37.62087 -122.38508 19 ft 6 kts 94°
2026-05-05 13:11 37.62070 -122.38449 21 ft 9 kts 115°
2026-05-05 13:11 37.62035 -122.38365 22 ft 13 kts 119°
2026-05-05 13:11 37.61986 -122.38248 23 ft 19 kts 117°
2026-05-05 13:12 37.61912 -122.38076 22 ft 24 kts 119°
2026-05-05 13:12 37.61834 -122.37883 19 ft 26 kts 114°
2026-05-05 13:12 37.61768 -122.37666 20 ft 27 kts 111°
2026-05-05 13:12 37.61695 -122.37450 20 ft 27 kts 117°
2026-05-05 13:13 37.61608 -122.37245 23 ft 26 kts 118°
2026-05-05 13:13 37.61519 -122.37036 24 ft 27 kts 117°
2026-05-05 13:13 37.61406 -122.36836 19 ft 29 kts 130°
2026-05-05 13:13 37.61296 -122.36613 18 ft 31 kts 117°
2026-05-05 13:14 37.61194 -122.36370 18 ft 31 kts 118°
2026-05-05 13:14 37.61109 -122.36156 18 ft 12 kts 104°
2026-05-05 13:14 37.61152 -122.36076 19 ft 13 kts 35°
2026-05-05 13:14 37.61235 -122.36032 16 ft 12 kts 347°
2026-05-05 13:15 37.61292 -122.36130 15 ft 20 kts 298°
2026-05-05 13:15 37.61465 -122.36546 20 ft 95 kts 298°
2026-05-05 13:15 37.61888 -122.37549 24 ft 160 kts 297°
2026-05-05 13:15 37.62429 -122.38825 645 ft 166 kts 297°
2026-05-05 13:16 37.63169 -122.39968 1404 ft 174 kts 326°
2026-05-05 13:16 37.64372 -122.40147 2037 ft 187 kts 13°
2026-05-05 13:16 37.65427 -122.39025 2321 ft 219 kts 58°
2026-05-05 13:16 37.66073 -122.37198 2655 ft 245 kts 65°
2026-05-05 13:17 37.66789 -122.35100 3264 ft 267 kts 64°
2026-05-05 13:17 37.67551 -122.32952 4407 ft 270 kts 63°
2026-05-05 13:17 37.68338 -122.30785 5553 ft 272 kts 63°
2026-05-05 13:17 37.69133 -122.28619 6687 ft 272 kts 63°
2026-05-05 13:18 37.69928 -122.26452 7775 ft 272 kts 63°
2026-05-05 13:18 37.70723 -122.24284 8874 ft 272 kts 62°
2026-05-05 13:18 37.71633 -122.22203 9943 ft 270 kts 51°
2026-05-05 13:18 37.72901 -122.20464 10898 ft 269 kts 39°
2026-05-05 13:19 37.74430 -122.19041 11561 ft 283 kts 35°
2026-05-05 13:19 37.76091 -122.17548 12057 ft 299 kts 35°
2026-05-05 13:19 37.77799 -122.16010 12868 ft 304 kts 36°
2026-05-05 13:19 37.79534 -122.14445 13759 ft 307 kts 36°
2026-05-05 13:20 37.81283 -122.12864 14587 ft 310 kts 36°
2026-05-05 13:20 37.83045 -122.11266 15354 ft 314 kts 36°
2026-05-05 13:20 37.84835 -122.09643 16114 ft 318 kts 36°
2026-05-05 13:20 37.86649 -122.07999 16872 ft 323 kts 35°
2026-05-05 13:21 37.88392 -122.06180 17605 ft 328 kts 44°
2026-05-05 13:21 37.89906 -122.03991 18326 ft 333 kts 48°
2026-05-05 13:21 37.91421 -122.01743 18979 ft 337 kts 48°
2026-05-05 13:21 37.92951 -121.99478 19634 ft 340 kts 47°
2026-05-05 13:22 37.94496 -121.97200 20289 ft 342 kts 47°
2026-05-05 13:22 37.96053 -121.94909 20958 ft 345 kts 47°
2026-05-05 13:22 37.97622 -121.92599 21608 ft 347 kts 47°
2026-05-05 13:22 37.99200 -121.90274 22253 ft 349 kts 47°
2026-05-05 13:23 38.00788 -121.87929 22867 ft 351 kts 47°
2026-05-05 13:23 38.02383 -121.85568 23435 ft 354 kts 47°
2026-05-05 13:23 38.03983 -121.83193 23954 ft 356 kts 48°
2026-05-05 13:23 38.05600 -121.80792 24434 ft 358 kts 47°
2026-05-05 13:24 38.07222 -121.78386 24922 ft 360 kts 47°
2026-05-05 13:24 38.08851 -121.75965 25415 ft 361 kts 48°
2026-05-05 13:24 38.10487 -121.73530 25925 ft 363 kts 48°
2026-05-05 13:24 38.12131 -121.71084 26423 ft 365 kts 47°
2026-05-05 13:25 38.13784 -121.68626 26941 ft 367 kts 47°
2026-05-05 13:25 38.15451 -121.66149 27421 ft 369 kts 48°
2026-05-05 13:25 38.17126 -121.63661 27910 ft 372 kts 47°
2026-05-05 13:25 38.18810 -121.61156 28389 ft 374 kts 48°
2026-05-05 13:26 38.20479 -121.58661 28856 ft 376 kts 48°
2026-05-05 13:26 38.22175 -121.56118 29321 ft 379 kts 48°
2026-05-05 13:26 38.23884 -121.53557 29790 ft 381 kts 48°
2026-05-05 13:26 38.25606 -121.50981 30214 ft 383 kts 48°
2026-05-05 13:27 38.27335 -121.48396 30611 ft 385 kts 48°
2026-05-05 13:27 38.29071 -121.45797 31031 ft 386 kts 48°
2026-05-05 13:27 38.30808 -121.43194 31464 ft 386 kts 48°
2026-05-05 13:27 38.32538 -121.40598 32047 ft 382 kts 48°
2026-05-05 13:28 38.34239 -121.38025 32673 ft 378 kts 49°
2026-05-05 13:28 38.35887 -121.35439 33304 ft 374 kts 50°
2026-05-05 13:28 38.37493 -121.32851 33944 ft 370 kts 50°
2026-05-05 13:28 38.39066 -121.30282 34450 ft 367 kts 51°
2026-05-05 13:29 38.40633 -121.27720 34850 ft 367 kts 51°
2026-05-05 13:29 38.42203 -121.25157 35208 ft 367 kts 51°
2026-05-05 13:29 38.43777 -121.22591 35546 ft 368 kts 51°
2026-05-05 13:29 38.45368 -121.20013 35878 ft 370 kts 51°
2026-05-05 13:30 38.46964 -121.17434 36195 ft 371 kts 51°
2026-05-05 13:30 38.48564 -121.14847 36520 ft 372 kts 51°
2026-05-05 13:30 38.50170 -121.12244 36837 ft 373 kts 51°
2026-05-05 13:30 38.51776 -121.09639 37145 ft 374 kts 51°
2026-05-05 13:31 38.53385 -121.07025 37442 ft 375 kts 51°
2026-05-05 13:31 38.54455 -121.05288 37634 ft 376 kts 51°
2026-05-05 13:31 38.56069 -121.02661 37917 ft 377 kts 52°
2026-05-05 13:31 38.58223 -120.99156 38303 ft 378 kts 52°
2026-05-05 13:32 38.59323 -120.97368 38495 ft 379 kts 52°
2026-05-05 13:32 38.60950 -120.94721 38751 ft 380 kts 52°
2026-05-05 13:32 38.63114 -120.91195 38982 ft 382 kts 52°
2026-05-05 13:32 38.64227 -120.89381 39014 ft 383 kts 52°
2026-05-05 13:33 38.67519 -120.83994 39037 ft 385 kts 52°
2026-05-05 13:33 38.70813 -120.78599 39035 ft 385 kts 52°
2026-05-05 13:34 38.74108 -120.73193 39034 ft 385 kts 52°
2026-05-05 13:34 38.77384 -120.67822 39034 ft 385 kts 52°
2026-05-05 13:35 38.80676 -120.62409 39036 ft 385 kts 52°
2026-05-05 13:35 38.83966 -120.56981 39039 ft 385 kts 52°
2026-05-05 13:36 38.87252 -120.51543 39034 ft 385 kts 52°
2026-05-05 13:36 38.90544 -120.46104 39029 ft 386 kts 52°
2026-05-05 13:37 38.93830 -120.40667 39018 ft 386 kts 52°
2026-05-05 13:37 38.97117 -120.35208 39012 ft 386 kts 52°
2026-05-05 13:38 39.00397 -120.29757 39011 ft 386 kts 52°
2026-05-05 13:38 39.03678 -120.24294 39009 ft 386 kts 52°
2026-05-05 13:39 39.06953 -120.18834 39006 ft 385 kts 52°
2026-05-05 13:39 39.10222 -120.13372 39004 ft 385 kts 52°
2026-05-05 13:40 39.13488 -120.07899 39005 ft 385 kts 52°
2026-05-05 13:40 39.16750 -120.02431 39002 ft 385 kts 52°
2026-05-05 13:41 39.20012 -119.96958 39002 ft 385 kts 52°
2026-05-05 13:41 39.23268 -119.91478 38991 ft 385 kts 52°
2026-05-05 13:42 39.26521 -119.85993 38996 ft 385 kts 52°
2026-05-05 13:42 39.29751 -119.80549 38997 ft 385 kts 52°
2026-05-05 13:43 39.32999 -119.75054 38991 ft 385 kts 52°
2026-05-05 13:43 39.36229 -119.69582 38965 ft 385 kts 51°
2026-05-05 13:44 39.39478 -119.64077 38967 ft 385 kts 52°
2026-05-05 13:44 39.42722 -119.58560 38964 ft 385 kts 52°
2026-05-05 13:45 39.45965 -119.53046 38956 ft 385 kts 51°
2026-05-05 13:45 39.49209 -119.47520 38949 ft 385 kts 52°
2026-05-05 13:46 39.52444 -119.41985 38937 ft 385 kts 52°
2026-05-05 13:46 39.55682 -119.36446 38925 ft 385 kts 52°
2026-05-05 13:47 39.58914 -119.30903 38911 ft 386 kts 52°
2026-05-05 13:47 39.62140 -119.25349 38908 ft 386 kts 52°
2026-05-05 13:48 39.65368 -119.19789 38905 ft 386 kts 52°
2026-05-05 13:48 39.68594 -119.14223 38903 ft 386 kts 52°
2026-05-05 13:49 39.71802 -119.08691 38899 ft 386 kts 51°
2026-05-05 13:49 39.75036 -119.03114 38902 ft 386 kts 52°
2026-05-05 13:50 39.78258 -118.97536 38900 ft 386 kts 52°
2026-05-05 13:50 39.81485 -118.91939 38901 ft 387 kts 52°
2026-05-05 13:51 39.84700 -118.86337 38910 ft 387 kts 52°
2026-05-05 13:51 39.87913 -118.80715 38920 ft 387 kts 54°
2026-05-05 13:52 39.90549 -118.74588 38930 ft 389 kts 59°
2026-05-05 13:52 39.93094 -118.68373 38938 ft 389 kts 59°
2026-05-05 13:53 39.95638 -118.62148 38945 ft 389 kts 59°
2026-05-05 13:53 39.98175 -118.55906 38949 ft 390 kts 59°
2026-05-05 13:54 40.00705 -118.49655 38948 ft 390 kts 59°
2026-05-05 13:54 40.03239 -118.43396 38947 ft 390 kts 59°
2026-05-05 13:55 40.05773 -118.37136 38942 ft 390 kts 59°
2026-05-05 13:55 40.08301 -118.30862 38933 ft 390 kts 60°
2026-05-05 13:56 40.10827 -118.24581 38923 ft 391 kts 60°
2026-05-05 13:56 40.13355 -118.18298 38915 ft 391 kts 59°
2026-05-05 13:57 40.15878 -118.12001 38909 ft 391 kts 60°
2026-05-05 13:57 40.18394 -118.05695 38906 ft 391 kts 60°
2026-05-05 13:58 40.20735 -117.99264 38909 ft 393 kts 65°
2026-05-05 13:58 40.22737 -117.92597 38905 ft 394 kts 65°
2026-05-05 13:59 40.25724 -117.82631 38907 ft 394 kts 65°
2026-05-05 14:00 40.28402 -117.73671 38898 ft 395 kts 65°
2026-05-05 14:00 40.30724 -117.65878 38901 ft 395 kts 65°
2026-05-05 14:01 40.32718 -117.59171 38906 ft 395 kts 65°
2026-05-05 14:01 40.34712 -117.52449 38904 ft 395 kts 65°
2026-05-05 14:02 40.36702 -117.45721 38902 ft 396 kts 65°
2026-05-05 14:02 40.38692 -117.38981 38900 ft 396 kts 66°
2026-05-05 14:03 40.40679 -117.32231 38894 ft 397 kts 66°
2026-05-05 14:03 40.42666 -117.25470 38903 ft 397 kts 66°
2026-05-05 14:04 40.44643 -117.18697 38916 ft 398 kts 66°
2026-05-05 14:04 40.46616 -117.11913 38932 ft 398 kts 66°
2026-05-05 14:05 40.48596 -117.05128 38949 ft 398 kts 66°
2026-05-05 14:05 40.50574 -116.98338 38961 ft 398 kts 66°
2026-05-05 14:06 40.52538 -116.91532 38971 ft 398 kts 66°
2026-05-05 14:06 40.54507 -116.84721 38974 ft 399 kts 66°
2026-05-05 14:07 40.56479 -116.77899 38969 ft 399 kts 66°
2026-05-05 14:07 40.58437 -116.71055 38957 ft 400 kts 66°
2026-05-05 14:08 40.60396 -116.64208 38941 ft 400 kts 66°
2026-05-05 14:08 40.62359 -116.57347 38921 ft 401 kts 66°
2026-05-05 14:09 40.64319 -116.50477 38900 ft 401 kts 66°
2026-05-05 14:09 40.66283 -116.43600 38878 ft 401 kts 66°
2026-05-05 14:10 40.68238 -116.36709 38873 ft 402 kts 66°
2026-05-05 14:10 40.70188 -116.29802 38874 ft 402 kts 66°
2026-05-05 14:11 40.72138 -116.22877 38877 ft 403 kts 66°
2026-05-05 14:11 40.74075 -116.15999 38890 ft 403 kts 66°
2026-05-05 14:12 40.76025 -116.09050 38907 ft 404 kts 66°
2026-05-05 14:12 40.77964 -116.02094 38921 ft 404 kts 66°
2026-05-05 14:13 40.79911 -115.95123 38939 ft 405 kts 66°
2026-05-05 14:13 40.81857 -115.88139 38947 ft 406 kts 67°
2026-05-05 14:14 40.83806 -115.81143 38947 ft 406 kts 67°
2026-05-05 14:14 40.85748 -115.74135 38948 ft 407 kts 67°
2026-05-05 14:15 40.87682 -115.67103 38941 ft 407 kts 67°
2026-05-05 14:15 40.89614 -115.60063 38922 ft 408 kts 67°
2026-05-05 14:16 40.91546 -115.53012 38904 ft 408 kts 67°
2026-05-05 14:16 40.93479 -115.45943 38883 ft 409 kts 67°
2026-05-05 14:17 40.95412 -115.38863 38863 ft 410 kts 67°
2026-05-05 14:17 40.97342 -115.31769 38856 ft 410 kts 67°
2026-05-05 14:18 40.99273 -115.24657 38850 ft 411 kts 67°
2026-05-05 14:18 41.01207 -115.17537 38846 ft 411 kts 67°
2026-05-05 14:19 41.02806 -115.11608 38839 ft 412 kts 68°
2026-05-05 14:19 41.04726 -115.04448 38846 ft 413 kts 68°
2026-05-05 14:20 41.06644 -114.97277 38839 ft 413 kts 68°
2026-05-05 14:20 41.08565 -114.90098 38838 ft 414 kts 68°
2026-05-05 14:21 41.10489 -114.82902 38835 ft 414 kts 68°
2026-05-05 14:21 41.12413 -114.75695 38834 ft 415 kts 68°
2026-05-05 14:22 41.14332 -114.68473 38826 ft 415 kts 68°
2026-05-05 14:22 41.16241 -114.61235 38821 ft 416 kts 68°
2026-05-05 14:23 41.18150 -114.53978 38814 ft 417 kts 68°
2026-05-05 14:23 41.20062 -114.46713 38807 ft 417 kts 68°
2026-05-05 14:24 41.21972 -114.39435 38801 ft 418 kts 68°
2026-05-05 14:24 41.23866 -114.32184 38791 ft 418 kts 68°
2026-05-05 14:25 41.25785 -114.24826 38789 ft 419 kts 68°
2026-05-05 14:25 41.27673 -114.17553 38787 ft 420 kts 68°
2026-05-05 14:26 41.29572 -114.10210 38782 ft 420 kts 68°
2026-05-05 14:26 41.31474 -114.02850 38777 ft 421 kts 68°
2026-05-05 14:27 41.33376 -113.95465 38774 ft 422 kts 68°
2026-05-05 14:27 41.35269 -113.88063 38771 ft 423 kts 68°
2026-05-05 14:28 41.36766 -113.80482 38771 ft 427 kts 77°
2026-05-05 14:28 41.37774 -113.72683 38769 ft 427 kts 77°
2026-05-05 14:29 41.38779 -113.64879 38768 ft 428 kts 77°
2026-05-05 14:29 41.39782 -113.57056 38767 ft 429 kts 77°
2026-05-05 14:30 41.40778 -113.49220 38765 ft 429 kts 77°
2026-05-05 14:30 41.41775 -113.41379 38764 ft 430 kts 77°
2026-05-05 14:31 41.42759 -113.33574 38764 ft 430 kts 77°
2026-05-05 14:31 41.43742 -113.25710 38762 ft 431 kts 78°
2026-05-05 14:32 41.44723 -113.17826 38764 ft 431 kts 78°
2026-05-05 14:32 41.45704 -113.09930 38761 ft 432 kts 78°
2026-05-05 14:33 41.46678 -113.02012 38760 ft 433 kts 78°
2026-05-05 14:33 41.47650 -112.94087 38759 ft 433 kts 78°
2026-05-05 14:34 41.48618 -112.86149 38757 ft 434 kts 78°
2026-05-05 14:34 41.49582 -112.78193 38755 ft 435 kts 78°
2026-05-05 14:35 41.50536 -112.70227 38750 ft 435 kts 78°
2026-05-05 14:35 41.51488 -112.62248 38757 ft 436 kts 78°
2026-05-05 14:36 41.52444 -112.54239 38760 ft 437 kts 78°
2026-05-05 14:36 41.53386 -112.46208 38789 ft 438 kts 79°
2026-05-05 14:37 41.54250 -112.38144 38823 ft 440 kts 79°
2026-05-05 14:37 41.55081 -112.30048 38860 ft 441 kts 79°
2026-05-05 14:38 41.55916 -112.21941 38888 ft 442 kts 79°
2026-05-05 14:38 41.56761 -112.13808 38908 ft 442 kts 79°
2026-05-05 14:39 41.57608 -112.05666 38906 ft 443 kts 80°
2026-05-05 14:39 41.58450 -111.97501 38909 ft 444 kts 80°
2026-05-05 14:40 41.59286 -111.89314 38893 ft 445 kts 80°
2026-05-05 14:40 41.60114 -111.81120 38885 ft 446 kts 80°
2026-05-05 14:41 41.60926 -111.72961 38888 ft 447 kts 80°
2026-05-05 14:41 41.61750 -111.64724 38883 ft 447 kts 80°
2026-05-05 14:42 41.62573 -111.56476 38883 ft 448 kts 81°
2026-05-05 14:42 41.63383 -111.48209 38881 ft 449 kts 81°
2026-05-05 14:43 41.64186 -111.39925 38879 ft 450 kts 81°
2026-05-05 14:43 41.64986 -111.31623 38893 ft 451 kts 81°
2026-05-05 14:44 41.65780 -111.23303 38901 ft 451 kts 81°
2026-05-05 14:44 41.66577 -111.14971 38904 ft 452 kts 81°
2026-05-05 14:45 41.67374 -111.06626 38917 ft 453 kts 81°
2026-05-05 14:45 41.68161 -110.98259 38926 ft 454 kts 81°
2026-05-05 14:46 41.68939 -110.89871 38952 ft 455 kts 81°
2026-05-05 14:46 41.69707 -110.81526 38987 ft 455 kts 82°
2026-05-05 14:47 41.70477 -110.73110 39006 ft 456 kts 82°
2026-05-05 14:47 41.71242 -110.64680 39025 ft 457 kts 82°
2026-05-05 14:48 41.71999 -110.56233 39035 ft 458 kts 82°
2026-05-05 14:48 41.72754 -110.47763 39031 ft 458 kts 82°
2026-05-05 14:49 41.73507 -110.39280 39013 ft 459 kts 82°
2026-05-05 14:49 41.74253 -110.30776 38989 ft 460 kts 82°
2026-05-05 14:50 41.74989 -110.22252 38957 ft 461 kts 82°
2026-05-05 14:50 41.75723 -110.13718 38931 ft 462 kts 82°
2026-05-05 14:51 41.76455 -110.05161 38917 ft 463 kts 82°
2026-05-05 14:51 41.77188 -109.96598 38913 ft 463 kts 82°
2026-05-05 14:52 41.77916 -109.88013 38907 ft 464 kts 83°
2026-05-05 14:52 41.78628 -109.79415 38908 ft 465 kts 83°
2026-05-05 14:53 41.79326 -109.70799 38910 ft 466 kts 83°
2026-05-05 14:53 41.80030 -109.62164 38909 ft 466 kts 83°
2026-05-05 14:54 41.80727 -109.53581 38911 ft 467 kts 83°
2026-05-05 14:54 41.81418 -109.44919 38910 ft 468 kts 83°
2026-05-05 14:55 41.82108 -109.36240 38930 ft 468 kts 83°
2026-05-05 14:55 41.82784 -109.27548 38948 ft 469 kts 83°
2026-05-05 14:56 41.83459 -109.18840 38957 ft 470 kts 83°
2026-05-05 14:56 41.84138 -109.10108 38962 ft 471 kts 83°
2026-05-05 14:57 41.84812 -109.01369 38958 ft 472 kts 84°
2026-05-05 14:57 41.85470 -108.92606 38950 ft 473 kts 84°
2026-05-05 14:58 41.86120 -108.83821 38941 ft 474 kts 84°
2026-05-05 14:58 41.86772 -108.75015 38931 ft 475 kts 84°
2026-05-05 14:59 41.87420 -108.66192 38935 ft 476 kts 84°
2026-05-05 14:59 41.88056 -108.57352 38938 ft 477 kts 84°
2026-05-05 15:00 41.88589 -108.49984 38942 ft 478 kts 84°
2026-05-05 15:00 41.89321 -108.39658 38947 ft 479 kts 85°
2026-05-05 15:01 41.89931 -108.30756 38958 ft 480 kts 85°
2026-05-05 15:01 41.90551 -108.21825 38954 ft 481 kts 85°
2026-05-05 15:02 41.91173 -108.12885 38957 ft 482 kts 85°
2026-05-05 15:02 41.91783 -108.03920 38951 ft 483 kts 85°
2026-05-05 15:03 41.92374 -107.94938 38948 ft 484 kts 85°
2026-05-05 15:03 41.92964 -107.85935 38954 ft 485 kts 85°
2026-05-05 15:04 41.93563 -107.76910 38950 ft 485 kts 85°
2026-05-05 15:04 41.94149 -107.67877 38954 ft 486 kts 86°
2026-05-05 15:05 41.94999 -107.54364 38975 ft 488 kts 86°
2026-05-05 15:06 41.95562 -107.45270 38987 ft 489 kts 86°
2026-05-05 15:06 41.96121 -107.36165 38999 ft 490 kts 86°
2026-05-05 15:07 41.96685 -107.27039 39004 ft 490 kts 86°
2026-05-05 15:07 41.97242 -107.17906 39003 ft 491 kts 86°
2026-05-05 15:08 41.97780 -107.08748 38997 ft 492 kts 86°
2026-05-05 15:08 41.98310 -106.99573 38987 ft 493 kts 87°
2026-05-05 15:09 41.98841 -106.90373 38978 ft 494 kts 87°
2026-05-05 15:09 41.99282 -106.82710 38966 ft 495 kts 87°
2026-05-05 15:10 41.99891 -106.71972 38968 ft 496 kts 87°
2026-05-05 15:10 42.00397 -106.62707 38972 ft 497 kts 87°
2026-05-05 15:11 42.00815 -106.54933 38974 ft 498 kts 87°
2026-05-05 15:11 42.01310 -106.45697 38979 ft 499 kts 87°
2026-05-05 15:12 42.01802 -106.36383 38988 ft 500 kts 88°
2026-05-05 15:12 42.02288 -106.27056 38991 ft 500 kts 88°
2026-05-05 15:13 42.02770 -106.17712 38997 ft 501 kts 88°
2026-05-05 15:13 42.03239 -106.08349 39003 ft 502 kts 88°
2026-05-05 15:14 42.03703 -105.98971 39009 ft 503 kts 88°
2026-05-05 15:14 42.04161 -105.89579 39020 ft 504 kts 88°
2026-05-05 15:15 42.04615 -105.80151 39024 ft 505 kts 88°
2026-05-05 15:15 42.05062 -105.70711 39030 ft 506 kts 88°
2026-05-05 15:16 42.05502 -105.61254 39031 ft 507 kts 88°
2026-05-05 15:16 42.05940 -105.51775 39029 ft 508 kts 88°
2026-05-05 15:17 42.06368 -105.42279 39033 ft 509 kts 88°
2026-05-05 15:17 42.06778 -105.32768 39030 ft 510 kts 89°
2026-05-05 15:18 42.07184 -105.23237 39034 ft 511 kts 89°
2026-05-05 15:18 42.07597 -105.13749 39047 ft 512 kts 87°
2026-05-05 15:19 42.08345 -105.04216 39057 ft 513 kts 83°
2026-05-05 15:19 42.09336 -104.94685 39060 ft 514 kts 83°
2026-05-05 15:20 42.10265 -104.85138 39061 ft 514 kts 84°
2026-05-05 15:20 42.11080 -104.75570 39059 ft 515 kts 85°
2026-05-05 15:21 42.11873 -104.65973 39052 ft 516 kts 85°
2026-05-05 15:21 42.12683 -104.56366 39047 ft 516 kts 85°
2026-05-05 15:22 42.13494 -104.46745 39042 ft 517 kts 84°
2026-05-05 15:22 42.14304 -104.37113 39038 ft 518 kts 85°
2026-05-05 15:23 42.15090 -104.27456 39039 ft 519 kts 85°
2026-05-05 15:23 42.15875 -104.17789 39043 ft 519 kts 85°
2026-05-05 15:24 42.16652 -104.08168 39039 ft 520 kts 85°
2026-05-05 15:24 42.17432 -103.98470 39034 ft 521 kts 85°
2026-05-05 15:25 42.18193 -103.88758 39030 ft 521 kts 85°
2026-05-05 15:25 42.18944 -103.79029 39024 ft 522 kts 85°
2026-05-05 15:26 42.19690 -103.69284 39025 ft 523 kts 85°
2026-05-05 15:26 42.20436 -103.59524 39028 ft 523 kts 85°
2026-05-05 15:27 42.21180 -103.49749 39028 ft 524 kts 85°
2026-05-05 15:27 42.21910 -103.39964 39027 ft 525 kts 85°
2026-05-05 15:28 42.22626 -103.30170 39028 ft 525 kts 85°
2026-05-05 15:28 42.23341 -103.20357 39032 ft 526 kts 85°
2026-05-05 15:29 42.24049 -103.10538 39038 ft 526 kts 85°
2026-05-05 15:29 42.24754 -103.00701 39043 ft 527 kts 85°
2026-05-05 15:30 42.25443 -102.90857 39046 ft 527 kts 85°
2026-05-05 15:30 42.26117 -102.81001 39045 ft 528 kts 85°
2026-05-05 15:31 42.26799 -102.71131 39044 ft 528 kts 85°
2026-05-05 15:31 42.27474 -102.61252 39040 ft 528 kts 85°
2026-05-05 15:32 42.28134 -102.51366 39040 ft 529 kts 85°
2026-05-05 15:32 42.28776 -102.41531 39043 ft 529 kts 85°
2026-05-05 15:33 42.29414 -102.31630 39048 ft 530 kts 86°
2026-05-05 15:33 42.30047 -102.21716 39052 ft 530 kts 86°
2026-05-05 15:34 42.30681 -102.11795 39052 ft 530 kts 86°
2026-05-05 15:34 42.31301 -102.01861 39053 ft 531 kts 86°
2026-05-05 15:35 42.31913 -101.91924 39055 ft 531 kts 86°
2026-05-05 15:35 42.32522 -101.81964 39057 ft 532 kts 86°
2026-05-05 15:36 42.33128 -101.72001 39059 ft 532 kts 86°
2026-05-05 15:36 42.33717 -101.62028 39057 ft 532 kts 86°
2026-05-05 15:37 42.34285 -101.52053 39063 ft 533 kts 86°
2026-05-05 15:37 42.34847 -101.42065 39058 ft 533 kts 86°
2026-05-05 15:38 42.35406 -101.32069 39060 ft 533 kts 86°
2026-05-05 15:38 42.35956 -101.22074 39070 ft 533 kts 86°
2026-05-05 15:39 42.36504 -101.12069 39070 ft 534 kts 86°
2026-05-05 15:39 42.37037 -101.02116 39069 ft 534 kts 86°
2026-05-05 15:40 42.37562 -100.92095 39069 ft 534 kts 86°
2026-05-05 15:40 42.38085 -100.82068 39068 ft 535 kts 86°
2026-05-05 15:41 42.38603 -100.72029 39069 ft 536 kts 86°
2026-05-05 15:41 42.39104 -100.61972 39075 ft 536 kts 86°
2026-05-05 15:42 42.39593 -100.51903 39073 ft 536 kts 86°
2026-05-05 15:42 42.40079 -100.41828 39074 ft 537 kts 86°
2026-05-05 15:43 42.40562 -100.31745 39071 ft 537 kts 86°
2026-05-05 15:43 42.41033 -100.21649 39067 ft 538 kts 86°
2026-05-05 15:44 42.41492 -100.11545 39066 ft 538 kts 86°
2026-05-05 15:44 42.41943 -100.01432 39068 ft 539 kts 86°
2026-05-05 15:45 42.42391 -99.91306 39071 ft 539 kts 86°
2026-05-05 15:45 42.42820 -99.81166 39074 ft 539 kts 86°
2026-05-05 15:46 42.43237 -99.71024 39084 ft 540 kts 86°
2026-05-05 15:46 42.43661 -99.60883 39089 ft 540 kts 86°
2026-05-05 15:47 42.44076 -99.50735 39094 ft 540 kts 86°
2026-05-05 15:47 42.44477 -99.40594 39090 ft 540 kts 86°
2026-05-05 15:48 42.44859 -99.30487 39088 ft 540 kts 86°
2026-05-05 15:48 42.45239 -99.20311 39090 ft 541 kts 86°
2026-05-05 15:49 42.45619 -99.10147 39090 ft 541 kts 86°
2026-05-05 15:49 42.45982 -98.99969 39088 ft 541 kts 87°
2026-05-05 15:50 42.46340 -98.89787 39088 ft 541 kts 87°
2026-05-05 15:50 42.46682 -98.79602 39085 ft 541 kts 87°
2026-05-05 15:51 42.47025 -98.69419 39083 ft 541 kts 86°
2026-05-05 15:51 42.47424 -98.59231 39082 ft 542 kts 85°
2026-05-05 15:52 42.47900 -98.49046 39087 ft 542 kts 85°
2026-05-05 15:52 42.48361 -98.38861 39092 ft 542 kts 85°
2026-05-05 15:53 42.48795 -98.28672 39099 ft 542 kts 86°
2026-05-05 15:53 42.49205 -98.18482 39105 ft 541 kts 86°
2026-05-05 15:54 42.49615 -98.08300 39097 ft 541 kts 86°
2026-05-05 15:54 42.50022 -97.98117 39101 ft 541 kts 86°
2026-05-05 15:55 42.50421 -97.87939 39096 ft 541 kts 86°
2026-05-05 15:55 42.50805 -97.77739 39104 ft 541 kts 86°
2026-05-05 15:56 42.51172 -97.67628 39099 ft 541 kts 86°
2026-05-05 15:56 42.51537 -97.57447 39090 ft 541 kts 86°
2026-05-05 15:57 42.51894 -97.47272 39087 ft 541 kts 86°
2026-05-05 15:57 42.52244 -97.37084 39081 ft 540 kts 86°
2026-05-05 15:58 42.52584 -97.26913 39075 ft 540 kts 86°
2026-05-05 15:58 42.52915 -97.16728 39067 ft 541 kts 86°
2026-05-05 15:59 42.53236 -97.06544 39059 ft 541 kts 86°
2026-05-05 15:59 42.53547 -96.96365 39058 ft 541 kts 86°
2026-05-05 16:00 42.53847 -96.86172 39058 ft 541 kts 86°
2026-05-05 16:00 42.54156 -96.76001 39166 ft 540 kts 86°
2026-05-05 16:01 42.54445 -96.67560 39351 ft 539 kts 85°
2026-05-05 16:01 42.54632 -96.62493 39493 ft 537 kts 85°
2026-05-05 16:01 42.54830 -96.57450 39663 ft 535 kts 85°
2026-05-05 16:01 42.55037 -96.52416 39855 ft 533 kts 85°
2026-05-05 16:02 42.55254 -96.47399 40070 ft 532 kts 85°
2026-05-05 16:02 42.55482 -96.42399 40306 ft 530 kts 85°
2026-05-05 16:02 42.55718 -96.37421 40583 ft 528 kts 84°
2026-05-05 16:02 42.55965 -96.32467 40871 ft 526 kts 84°
2026-05-05 16:03 42.56220 -96.27536 41191 ft 523 kts 84°
2026-05-05 16:03 42.56483 -96.22629 41543 ft 520 kts 84°
2026-05-05 16:03 42.56755 -96.17753 41913 ft 516 kts 84°
2026-05-05 16:03 42.57034 -96.12927 42319 ft 510 kts 84°
2026-05-05 16:04 42.57317 -96.08222 42746 ft 504 kts 84°
2026-05-05 16:04 42.57608 -96.03521 43204 ft 496 kts 84°
2026-05-05 16:04 42.57905 -95.98898 43682 ft 487 kts 84°
2026-05-05 16:04 42.58205 -95.94367 44161 ft 478 kts 83°
2026-05-05 16:05 42.58397 -95.89864 43956 ft 482 kts 95°
2026-05-05 16:05 42.57821 -95.85365 43000 ft 488 kts 105°
2026-05-05 16:05 42.57018 -95.80844 42020 ft 498 kts 105°
2026-05-05 16:05 42.56198 -95.76233 41153 ft 506 kts 105°
2026-05-05 16:06 42.55721 -95.71486 40380 ft 512 kts 89°
2026-05-05 16:06 42.55822 -95.66631 39621 ft 518 kts 86°
2026-05-05 16:06 42.55906 -95.61739 39211 ft 519 kts 88°
2026-05-05 16:06 42.55944 -95.56818 39006 ft 525 kts 88°
2026-05-05 16:07 42.55957 -95.51860 38989 ft 528 kts 89°
2026-05-05 16:07 42.55974 -95.41858 38989 ft 530 kts 88°
2026-05-05 16:08 42.56032 -95.31859 38991 ft 530 kts 88°
2026-05-05 16:08 42.56115 -95.21862 38987 ft 530 kts 88°
2026-05-05 16:09 42.56186 -95.11903 38987 ft 529 kts 88°
2026-05-05 16:09 42.56235 -95.01982 38999 ft 529 kts 88°
2026-05-05 16:10 42.56269 -94.92003 38996 ft 529 kts 88°
2026-05-05 16:10 42.56300 -94.82013 38995 ft 529 kts 88°
2026-05-05 16:11 42.56326 -94.72041 38991 ft 529 kts 88°
2026-05-05 16:12 42.56350 -94.52104 38996 ft 528 kts 88°
2026-05-05 16:13 42.56334 -94.27244 39004 ft 527 kts 89°
2026-05-05 16:13 42.56307 -94.17315 39003 ft 526 kts 89°
2026-05-05 16:14 42.56218 -93.97504 38978 ft 525 kts 89°
2026-05-05 16:15 42.56114 -93.77729 38975 ft 523 kts 89°
2026-05-05 16:16 42.55974 -93.58098 38979 ft 521 kts 89°
2026-05-05 16:17 42.55850 -93.43365 38995 ft 520 kts 89°
2026-05-05 16:18 42.55707 -93.28666 38993 ft 519 kts 89°
2026-05-05 16:19 42.55533 -93.14015 38986 ft 517 kts 90°
2026-05-05 16:19 42.55232 -92.99410 38976 ft 516 kts 91°
2026-05-05 16:20 42.54656 -92.79994 38969 ft 515 kts 91°
2026-05-05 16:22 42.53973 -92.55784 38990 ft 513 kts 91°
2026-05-05 16:23 42.53384 -92.36493 38978 ft 511 kts 91°
2026-05-05 16:23 42.52925 -92.22075 38974 ft 510 kts 91°
2026-05-05 16:24 42.52604 -92.12472 38991 ft 509 kts 91°
2026-05-05 16:25 42.52276 -91.98108 38994 ft 507 kts 88°
2026-05-05 16:25 42.52502 -91.83841 38996 ft 506 kts 87°
2026-05-05 16:26 42.52655 -91.64800 38972 ft 504 kts 88°
2026-05-05 16:27 42.52670 -91.55295 38965 ft 503 kts 88°
2026-05-05 16:27 42.52698 -91.39332 38955 ft 502 kts 88°
2026-05-05 16:28 42.52729 -91.20423 38955 ft 501 kts 88°
2026-05-05 16:28 42.52687 -90.97820 38939 ft 500 kts 89°
2026-05-05 16:29 42.52635 -90.80766 38935 ft 499 kts 89°
2026-05-05 16:29 42.52615 -90.76008 38631 ft 511 kts 89°
2026-05-05 16:29 42.52593 -90.71156 37643 ft 518 kts 89°
2026-05-05 16:30 42.52569 -90.66289 36948 ft 515 kts 89°
2026-05-05 16:30 42.52540 -90.61453 36371 ft 510 kts 90°
2026-05-05 16:30 42.52509 -90.56671 35858 ft 505 kts 90°
2026-05-05 16:30 42.52477 -90.51940 35365 ft 501 kts 90°
2026-05-05 16:31 42.52441 -90.47244 34874 ft 497 kts 90°
2026-05-05 16:31 42.52400 -90.42582 34390 ft 492 kts 91°
2026-05-05 16:31 42.52357 -90.38025 33917 ft 488 kts 91°
2026-05-05 16:31 42.52313 -90.33388 33355 ft 483 kts 91°
2026-05-05 16:32 42.52274 -90.28919 32829 ft 479 kts 91°
2026-05-05 16:32 42.52243 -90.24430 32302 ft 474 kts 91°
2026-05-05 16:32 42.52217 -90.19986 31794 ft 468 kts 91°
2026-05-05 16:32 42.52192 -90.15596 31248 ft 464 kts 91°
2026-05-05 16:33 42.52164 -90.11246 30689 ft 460 kts 91°
2026-05-05 16:33 42.52131 -90.06930 30131 ft 455 kts 91°
2026-05-05 16:33 42.52094 -90.02670 29505 ft 451 kts 91°
2026-05-05 16:33 42.52056 -89.98434 28845 ft 446 kts 91°
2026-05-05 16:34 42.52017 -89.94250 28212 ft 442 kts 91°
2026-05-05 16:34 42.51975 -89.90104 27369 ft 436 kts 91°
2026-05-05 16:34 42.51934 -89.86015 26113 ft 431 kts 91°
2026-05-05 16:34 42.51894 -89.81989 24970 ft 424 kts 91°
2026-05-05 16:35 42.51833 -89.78022 23874 ft 417 kts 96°
2026-05-05 16:35 42.51431 -89.74174 22711 ft 409 kts 102°
2026-05-05 16:35 42.50973 -89.70402 21541 ft 403 kts 101°
2026-05-05 16:35 42.50519 -89.66683 20420 ft 397 kts 101°
2026-05-05 16:36 42.50072 -89.63022 19351 ft 391 kts 101°
2026-05-05 16:36 42.49637 -89.59462 18349 ft 386 kts 101°
2026-05-05 16:36 42.49198 -89.55903 17230 ft 380 kts 101°
2026-05-05 16:36 42.48766 -89.52402 16185 ft 373 kts 101°
2026-05-05 16:37 42.48343 -89.48965 15177 ft 367 kts 101°
2026-05-05 16:37 42.47924 -89.45584 14215 ft 361 kts 101°
2026-05-05 16:37 42.47513 -89.42269 13227 ft 354 kts 101°
2026-05-05 16:37 42.47106 -89.39011 12002 ft 351 kts 100°
2026-05-05 16:38 42.46705 -89.35757 11120 ft 340 kts 99°
2026-05-05 16:38 42.46332 -89.32699 10317 ft 327 kts 99°
2026-05-05 16:38 42.45967 -89.29720 9842 ft 317 kts 99°
2026-05-05 16:38 42.45603 -89.26765 9547 ft 318 kts 99°
2026-05-05 16:39 42.45243 -89.23813 9451 ft 318 kts 99°
2026-05-05 16:39 42.44881 -89.20862 9316 ft 317 kts 99°
2026-05-05 16:39 42.44518 -89.17920 9186 ft 316 kts 99°
2026-05-05 16:39 42.44153 -89.14991 9042 ft 315 kts 99°
2026-05-05 16:40 42.43788 -89.12074 8919 ft 314 kts 99°
2026-05-05 16:40 42.43422 -89.09157 8771 ft 313 kts 99°
2026-05-05 16:40 42.43052 -89.06259 8650 ft 312 kts 100°
2026-05-05 16:40 42.42680 -89.03369 8514 ft 311 kts 99°
2026-05-05 16:41 42.42314 -89.00478 8551 ft 311 kts 99°
2026-05-05 16:41 42.41956 -88.97622 8797 ft 312 kts 99°
2026-05-05 16:41 42.41587 -88.94721 8984 ft 314 kts 100°
2026-05-05 16:41 42.41217 -88.91803 9020 ft 315 kts 99°
2026-05-05 16:42 42.40848 -88.88888 9024 ft 315 kts 100°
2026-05-05 16:42 42.40479 -88.85976 9019 ft 314 kts 100°
2026-05-05 16:42 42.40104 -88.83026 9023 ft 314 kts 100°
2026-05-05 16:42 42.39734 -88.80144 9019 ft 314 kts 100°
2026-05-05 16:43 42.39357 -88.77232 9018 ft 315 kts 100°
2026-05-05 16:43 42.38982 -88.74323 9017 ft 315 kts 100°
2026-05-05 16:43 42.38605 -88.71409 9024 ft 314 kts 100°
2026-05-05 16:43 42.38229 -88.68497 9020 ft 314 kts 100°
2026-05-05 16:44 42.37854 -88.65587 9015 ft 314 kts 100°
2026-05-05 16:44 42.37479 -88.62669 9012 ft 315 kts 100°
2026-05-05 16:44 42.37101 -88.59753 9012 ft 315 kts 100°
2026-05-05 16:44 42.36720 -88.56844 9025 ft 315 kts 101°
2026-05-05 16:45 42.36333 -88.53932 9022 ft 315 kts 101°
2026-05-05 16:45 42.35947 -88.51017 9011 ft 314 kts 101°
2026-05-05 16:45 42.35562 -88.48106 9017 ft 315 kts 101°
2026-05-05 16:45 42.35176 -88.45191 9025 ft 316 kts 101°
2026-05-05 16:46 42.34796 -88.42271 9019 ft 315 kts 101°
2026-05-05 16:46 42.34197 -88.39445 9010 ft 313 kts 116°
2026-05-05 16:46 42.33089 -88.36941 9012 ft 309 kts 130°
2026-05-05 16:46 42.31823 -88.34590 9012 ft 309 kts 130°
2026-05-05 16:47 42.30558 -88.32241 9007 ft 309 kts 130°
2026-05-05 16:47 42.29262 -88.29927 9012 ft 308 kts 133°
2026-05-05 16:47 42.27900 -88.27700 9012 ft 308 kts 134°
2026-05-05 16:47 42.26502 -88.25511 9013 ft 308 kts 135°
2026-05-05 16:48 42.25095 -88.23330 9004 ft 308 kts 135°
2026-05-05 16:48 42.23694 -88.21152 9011 ft 307 kts 135°
2026-05-05 16:48 42.22299 -88.18968 9010 ft 307 kts 135°
2026-05-05 16:48 42.20906 -88.16779 9009 ft 307 kts 136°
2026-05-05 16:49 42.19326 -88.14900 9011 ft 300 kts 152°
2026-05-05 16:49 42.17514 -88.13668 9009 ft 293 kts 165°
2026-05-05 16:49 42.15607 -88.12704 9011 ft 293 kts 165°
2026-05-05 16:49 42.13697 -88.11731 9009 ft 293 kts 165°
2026-05-05 16:50 42.11798 -88.10757 9006 ft 292 kts 165°
2026-05-05 16:50 42.09893 -88.09781 9015 ft 293 kts 165°
2026-05-05 16:50 42.07990 -88.08808 9013 ft 292 kts 165°
2026-05-05 16:50 42.06094 -88.07842 9016 ft 292 kts 165°
2026-05-05 16:51 42.04191 -88.06869 9004 ft 292 kts 165°
2026-05-05 16:51 42.02293 -88.05899 8994 ft 292 kts 165°
2026-05-05 16:51 42.00395 -88.04930 8998 ft 292 kts 165°
2026-05-05 16:51 41.98495 -88.03965 9005 ft 292 kts 165°
2026-05-05 16:52 41.96592 -88.03000 9006 ft 292 kts 166°
2026-05-05 16:52 41.94696 -88.02035 9004 ft 292 kts 166°
2026-05-05 16:52 41.92799 -88.01070 9010 ft 291 kts 165°
2026-05-05 16:52 41.90959 -87.99884 9012 ft 299 kts 151°
2026-05-05 16:53 41.89463 -87.97887 9002 ft 309 kts 128°
2026-05-05 16:53 41.88589 -87.95227 9000 ft 317 kts 105°
2026-05-05 16:53 41.88439 -87.92273 9011 ft 319 kts 90°
2026-05-05 16:53 41.88455 -87.89288 9000 ft 320 kts 91°
2026-05-05 16:54 41.88459 -87.87312 9009 ft 320 kts 91°
2026-05-05 16:54 41.88457 -87.84321 8987 ft 319 kts 91°
2026-05-05 16:54 41.88452 -87.81364 8550 ft 316 kts 91°
2026-05-05 16:54 41.88447 -87.78426 8070 ft 313 kts 91°
2026-05-05 16:55 41.88442 -87.75518 7589 ft 310 kts 91°
2026-05-05 16:55 41.88435 -87.72641 7127 ft 307 kts 91°
2026-05-05 16:55 41.88426 -87.69791 6662 ft 304 kts 91°
2026-05-05 16:55 41.88423 -87.66967 6235 ft 302 kts 91°
2026-05-05 16:56 41.88419 -87.64165 5961 ft 298 kts 92°
2026-05-05 16:56 41.88413 -87.61385 5520 ft 298 kts 92°
2026-05-05 16:56 41.88404 -87.58626 5112 ft 294 kts 92°
2026-05-05 16:56 41.88470 -87.55920 5017 ft 284 kts 82°
2026-05-05 16:57 41.89100 -87.53512 5025 ft 265 kts 58°
2026-05-05 16:57 41.90217 -87.51714 5035 ft 239 kts 37°
2026-05-05 16:57 41.91549 -87.50607 5023 ft 213 kts 17°
2026-05-05 16:57 41.92950 -87.50114 5041 ft 207 kts 359°
2026-05-05 16:58 41.94357 -87.50164 5026 ft 200 kts 343°
2026-05-05 16:58 41.95658 -87.50699 5028 ft 193 kts 327°
2026-05-05 16:58 41.96773 -87.51636 5034 ft 186 kts 313°
2026-05-05 16:58 41.97647 -87.52878 5021 ft 181 kts 299°
2026-05-05 16:59 41.98250 -87.54328 5034 ft 176 kts 287°
2026-05-05 16:59 41.98577 -87.55891 5026 ft 172 kts 275°
2026-05-05 16:59 41.98708 -87.57482 5023 ft 171 kts 270°
2026-05-05 16:59 41.98757 -87.59078 4994 ft 171 kts 268°
2026-05-05 17:00 41.98778 -87.60599 4905 ft 150 kts 267°
2026-05-05 17:00 41.98788 -87.61904 4742 ft 130 kts 266°
2026-05-05 17:00 41.98792 -87.63058 4583 ft 122 kts 265°
2026-05-05 17:00 41.98795 -87.64190 4428 ft 120 kts 265°
2026-05-05 17:01 41.98798 -87.65308 4268 ft 120 kts 265°
2026-05-05 17:01 41.98801 -87.66427 4119 ft 120 kts 265°
2026-05-05 17:01 41.98803 -87.67545 3953 ft 119 kts 265°
2026-05-05 17:01 41.98805 -87.68652 3795 ft 119 kts 264°
2026-05-05 17:02 41.98808 -87.69768 3644 ft 119 kts 264°
2026-05-05 17:02 41.98810 -87.70876 3478 ft 118 kts 264°
2026-05-05 17:02 41.98812 -87.71979 3324 ft 118 kts 264°
2026-05-05 17:02 41.98813 -87.73077 3179 ft 119 kts 264°
2026-05-05 17:03 41.98816 -87.74191 3017 ft 118 kts 264°
2026-05-05 17:03 41.98817 -87.75289 2855 ft 118 kts 264°
2026-05-05 17:03 41.98819 -87.76384 2696 ft 117 kts 264°
2026-05-05 17:03 41.98820 -87.77476 2558 ft 117 kts 264°
2026-05-05 17:04 41.98822 -87.78584 2390 ft 119 kts 264°
2026-05-05 17:04 41.98823 -87.79693 2231 ft 117 kts 264°
2026-05-05 17:04 41.98824 -87.80771 2072 ft 115 kts 263°
2026-05-05 17:04 41.98826 -87.81847 1928 ft 116 kts 264°
2026-05-05 17:05 41.98841 -87.82928 1743 ft 115 kts 265°
2026-05-05 17:05 41.98850 -87.84005 1551 ft 114 kts 261°
2026-05-05 17:05 41.98800 -87.85096 1444 ft 117 kts 264°
2026-05-05 17:05 41.98792 -87.86191 1167 ft 117 kts 269°
2026-05-05 17:06 41.98814 -87.87268 1008 ft 115 kts 270°
2026-05-05 17:06 41.98834 -87.88345 833 ft 115 kts 266°
2026-05-05 17:06 41.98822 -87.89413 713 ft 113 kts 270°
2026-05-05 17:06 41.98835 -87.90427 672 ft 101 kts 268°
2026-05-05 17:07 41.98831 -87.91236 668 ft 65 kts 268°
2026-05-05 17:07 41.98829 -87.91641 669 ft 32 kts 268°
2026-05-05 17:07 41.98756 -87.91925 670 ft 32 kts 237°
2026-05-05 17:07 41.98684 -87.91933 671 ft 0 kts 82°
2026-05-05 17:08 41.98684 -87.91931 671 ft 1 kts 82°
2026-05-05 17:08 41.98683 -87.91887 671 ft 9 kts 103°
2026-05-05 17:08 41.98642 -87.91829 671 ft 9 kts 158°
2026-05-05 17:09 41.98576 -87.91820 671 ft 10 kts 179°
2026-05-05 17:09 41.98501 -87.91821 670 ft 12 kts 180°
2026-05-05 17:09 41.98411 -87.91822 669 ft 14 kts 180°
2026-05-05 17:09 41.98317 -87.91820 670 ft 11 kts 168°
2026-05-05 17:10 41.98289 -87.91732 671 ft 11 kts 93°
2026-05-05 17:10 41.98288 -87.91623 671 ft 12 kts 90°
2026-05-05 17:10 41.98289 -87.91499 671 ft 14 kts 89°
2026-05-05 17:10 41.98290 -87.91364 671 ft 15 kts 89°
2026-05-05 17:11 41.98291 -87.91213 669 ft 18 kts 90°
2026-05-05 17:11 41.98290 -87.91039 669 ft 19 kts 90°
2026-05-05 17:11 41.98272 -87.90890 669 ft 13 kts 138°
2026-05-05 17:11 41.98188 -87.90856 670 ft 13 kts 174°
2026-05-05 17:12 41.98093 -87.90848 671 ft 14 kts 180°
2026-05-05 17:12 41.97999 -87.90866 671 ft 7 kts 201°
2026-05-05 17:12 41.97987 -87.90880 669 ft 3 kts 225°
2026-05-05 17:12 41.97979 -87.90908 669 ft 4 kts 258°
2026-05-05 17:13 41.97977 -87.90941 671 ft 2 kts 276°
2026-05-05 17:13 41.97977 -87.90942 671 ft 0 kts 276°